Grizzly Air Cargo 5379


PABE
Bethel Airport
Bethel, Alaska, US
PAKN
King Salmon Airport
King Salmon, Alaska, US

Activity Log

Date Flight Route Aircraft Duration
No Flights Yet

Route Details

Aircraft Information
Primary: Saab 340AF
Backup: Not Available
Route Data
Distance: 208nm
Sched. Duration: 1h 00m
Avg. Duration: 0h 00m (-100m)
Times Flown: 0
Recm'd Route: BET J123 AKN
Planned Altitude: 21,000ft
Origin Wx: PABE 221453Z AUTO 15019KT 10SM FEW026 OVC037 02/00 A2964 RMK AO2 PK WND 15030/1416 UPB11E13B34E36SNB04E11B13E34 SLP037 P0002 60002 T00170000 53019 TSNO $
Dest. Wx: PAKN 221454Z AUTO 15009KT 10SM CLR 03/01 A2986 RMK AO2 SLP111 T00330006 50024 TSNO
Notes:

Financial History
Total Freight: 0lbs
Average Load: 0lbs/flt
Fuel Used: 0lbs
Avg. Fuel Used: 0lbs/flt
Fuel Expense: $0
Avg. Fuel Expense: $0
Avg. Fuel Cost: $0/lbs
Total Gross Income: $0
Pilot Pay: $0
Total Expenses: $0
Total Revenue: $0
Average Revenue: $0